Location: Harwich
(41.7160°N, 69.9939°W)
Time: 01:22:21
(UTC+02:00)

AO-27 - Pass Details

Date: 24 September 2024
Orbit: 783 x 796 km, 98.8° (Epoch: 04 October)

Event Time Altitude Azimuth Distance (km) Brightness Sun altitude
Exits shadow 02:39:00 34° 48° (NE) 1,277 8.5 -23.6°
Drops below altitude 10° 02:42:56 10° 3° (N) 2,361 10.3 -24.2°
Sets 02:45:24 0° 355° (N) 3,292 11.2 -24.7°
